DW6376 Weather Reports


Display with metric or nautical units.
time (UTC)temp
F
wind
direction
speed
MPH
gust
MPH
rain 1hr
in
rain 24hr
in
rain mn
in
humidity
%
barometer
mb
20260508074539 54 33 0.0 0.0 0.00 0.00 0.00 50 1013.6
20260508073033 54 33 0.0 0.0 0.00 0.00 0.00 51 1013.7
20260508071530 54 33 0.0 0.0 0.00 0.00 0.00 49 1013.9
20260508070025 54 33 0.0 0.0 0.00 0.00 0.00 50 1014.0
20260508064524 54 33 0.0 0.0 0.00 0.00 0.00 50 1013.9
20260508063023 54 33 0.0 0.0 0.00 0.00 0.00 47 1013.8
20260508061524 54 33 0.0 0.0 0.00 0.00 0.00 49 1013.6
20260508060011 55 33 0.0 0.0 0.00 0.00 0.00 49 1013.4
20260508054511 55 33 0.0 0.0 0.00 0.00 0.00 48 1013.4
20260508053018 56 33 0.0 0.0 0.00 0.00 0.00 47 1013.4
20260508051511 56 33 0.0 0.0 0.00 0.00 0.00 45 1013.4
20260508050010 57 33 0.0 0.0 0.00 0.00 0.00 46 1013.5
20260508044510 57 33 0.0 0.0 0.00 0.00 0.00 45 1013.5
20260508043009 58 33 0.0 0.0 0.00 0.00 0.00 44 1013.6
20260508041509 58 33 0.0 0.0 0.00 0.00 0.00 41 1013.7
20260508040110 59 33 0.0 0.0 0.00 0.00 0.00 42 1013.7
20260508034603 60 33 0.0 0.0 0.00 0.00 0.00 42 1013.5
20260508033055 61 33 0.0 0.0 0.00 0.00 0.00 41 1013.3
20260508031559 62 33 0.0 0.0 0.00 0.00 0.00 41 1013.3
20260508030055 63 33 0.0 0.0 0.00 0.00 0.00 38 1013.2
20260508024605 64 33 0.0 0.0 0.00 0.00 0.00 39 1013.0
20260508023054 66 33 0.0 0.0 0.00 0.00 0.00 35 1013.0
20260508021554 68 33 0.0 0.0 0.00 0.00 0.00 34 1012.9
20260508020046 70 33 0.0 0.0 0.00 0.00 0.00 30 1012.9
20260508014540 71 33 0.0 0.0 0.00 0.00 0.00 33 1012.9
20260508013039 72 33 0.0 0.0 0.00 0.00 0.00 31 1013.0
20260508011546 72 33 0.0 0.0 0.00 0.00 0.00 28 1013.0
20260508010036 72 33 0.0 0.0 0.00 0.00 0.00 25 1013.3
20260508004534 72 33 0.0 0.0 0.00 0.00 0.00 27 1013.5
20260508003036 72 33 0.0 0.0 0.00 0.00 0.00 27 1013.6
20260508001530 73 33 0.0 0.0 0.00 0.00 0.00 23 1013.8
20260508000018 74 38 0.0 0.0 0.00 0.00 0.00 24 1014.0
20260507234516 75 38 1.0 0.0 0.00 0.00 0.00 23 1014.0
20260507233029 75 30 1.0 0.0 0.00 0.00 0.00 22 1014.3
20260507231513 75 21 0.0 0.0 0.00 0.00 0.00 25 1014.3
20260507230011 76 32 1.0 0.0 0.00 0.00 0.00 21 1014.6
20260507224509 76 21 1.0 0.0 0.00 0.00 0.00 23 1014.9
20260507223006 75 21 0.0 0.0 0.00 0.00 0.00 22 1015.1
20260507221504 75 21 0.0 0.0 0.00 0.00 0.00 23 1015.3
20260507220048 74 28 0.0 0.0 0.00 0.00 0.00 25 1015.5
20260507214546 73 355 1.0 0.0 0.00 0.00 0.00 23 1015.8
20260507213058 73 252 0.0 0.0 0.00 0.00 0.00 25 1016.0
20260507211547 74 28 0.0 0.0 0.00 0.00 0.00 25 1016.2
20260507210048 74 28 0.0 0.0 0.00 0.00 0.00 23 1016.5
20260507204538 73 28 0.0 0.0 0.00 0.00 0.00 24 1016.9
20260507203041 72 28 0.0 0.0 0.00 0.00 0.00 25 1017.3
20260507201531 71 20 0.0 0.0 0.00 0.00 0.00 24 1017.6
20260507200015 70 20 0.0 0.0 0.00 0.00 0.00 27 1017.8
20260507194514 70 20 0.0 0.0 0.00 0.00 0.00 27 1018.0
20260507193015 69 20 0.0 0.0 0.00 0.00 0.00 25 1018.5
20260507191511 68 19 0.0 0.0 0.00 0.00 0.00 23 1018.7
20260507190005 67 18 0.0 0.0 0.00 0.00 0.00 26 1018.9
20260507184600 65 18 0.0 0.0 0.00 0.00 0.00 29 1019.1
20260507183057 64 18 0.0 0.0 0.00 0.00 0.00 28 1019.4
20260507181558 64 18 0.0 0.0 0.00 0.00 0.00 26 1019.6
20260507180037 64 350 0.0 0.0 0.00 0.00 0.00 25 1019.8
20260507174532 62 350 0.0 0.0 0.00 0.00 0.00 28 1020.1
20260507173010 61 350 0.0 0.0 0.00 0.00 0.00 29 1020.4
20260507171510 60 350 0.0 0.0 0.00 0.00 0.00 28 1020.6
20260507170107 60 350 0.0 0.0 0.00 0.00 0.00 29 1020.8
20260507164554 60 350 0.0 0.0 0.00 0.00 0.00 31 1020.8
20260507163033 59 350 0.0 0.0 0.00 0.00 0.00 29 1021.0
20260507161531 58 350 0.0 0.0 0.00 0.00 0.00 34 1021.1
20260507160031 57 350 0.0 0.0 0.00 0.00 0.00 36 1021.2
20260507154522 55 350 0.0 0.0 0.00 0.00 0.00 44 1021.4
20260507153019 53 350 0.0 0.0 0.00 0.00 0.00 41 1021.7
20260507151517 53 350 0.0 0.0 0.00 0.00 0.00 44 1021.9
20260507150013 52 350 0.0 0.0 0.00 0.00 0.00 43 1021.7
20260507144509 50 350 0.0 0.0 0.00 0.00 0.00 46 1021.8
20260507143010 48 350 0.0 0.0 0.00 0.00 0.00 49 1021.9
20260507141619 46 350 0.0 0.0 0.00 0.00 0.00 55 1021.8
20260507140049 45 350 0.0 0.0 0.00 0.00 0.00 57 1021.8
20260507134547 44 350 0.0 0.0 0.00 0.00 0.00 58 1021.9
20260507133047 44 350 0.0 0.0 0.00 0.00 0.00 56 1021.7
20260507131545 43 350 0.0 0.0 0.00 0.00 0.00 58 1021.8
20260507130045 42 350 0.0 0.0 0.00 0.00 0.00 59 1021.9
20260507124544 42 350 0.0 0.0 0.00 0.00 0.00 61 1021.8
20260507123045 41 350 0.0 0.0 0.00 0.00 0.00 62 1021.6
20260507121531 41 350 0.0 0.0 0.00 0.00 0.00 62 1021.6
20260507120040 42 350 0.0 0.0 0.00 0.00 0.00 60 1021.6
20260507114528 42 350 0.0 0.0 0.00 0.00 0.00 59 1021.4
20260507113038 42 350 0.0 0.0 0.00 0.00 0.00 60 1021.3
20260507111526 42 350 0.0 0.0 0.00 0.00 0.00 58 1021.3
20260507110026 42 350 0.0 0.0 0.00 0.00 0.00 54 1021.3
20260507104523 42 350 0.0 0.0 0.00 0.00 0.00 55 1021.4
20260507103021 43 350 0.0 0.0 0.00 0.00 0.00 58 1021.5
20260507101507 43 350 0.0 0.0 0.00 0.00 0.00 58 1021.6
20260507100001 43 350 0.0 0.0 0.00 0.00 0.00 58 1021.6
20260507094554 43 350 0.0 0.0 0.00 0.00 0.00 54 1021.7
20260507093046 44 350 0.0 0.0 0.00 0.00 0.00 55 1021.8
20260507091546 44 350 0.0 0.0 0.00 0.00 0.00 52 1021.9
20260507090045 44 350 0.0 0.0 0.00 0.00 0.00 52 1021.9
20260507084541 44 350 0.0 0.0 0.00 0.00 0.00 54 1022.0
20260507083038 45 350 0.0 0.0 0.00 0.00 0.00 55 1022.1
20260507081543 45 350 0.0 0.0 0.00 0.00 0.00 53 1022.2
20260507080037 45 350 0.0 0.0 0.00 0.00 0.00 52 1022.4